Regional Weather Roundup
Issued by NWS

Home | Current Version | Previous Version | Text Only | Print | Product List | Glossary Off
Versions: 1 2 3 4 5 6 7 8 9 10 11 12 13 14 15 16 17 18 19 20 21 22 23 24 25 26 27 28 29 30 31 32 33 34 35 36 37 38 39 40 41 42 43 44 45 46 47 48 49 50

000
ASUS45 KPSR 271210
RWRAZ

ARIZONA HOURLY REGIONAL WEATHER ROUNDUP
NATIONAL WEATHER SERVICE PHOENIX AZ
500 AM MST WED MAY 27 2015

NOTE: FAIR INDICATES FEW OR NO CLOUDS BELOW 12,000 FEET WITH NO
SIGNIFICANT WEATHER AND/OR OBSTRUCTIONS TO VISIBILITY.

AZZ001>003-036-271300-
NORTHWEST ARIZONA

CITY           SKY/WX    TMP DP  RH WIND       PRES   REMARKS
BULLHEAD CITY  MOCLDY    73  34  23 CALM      29.85S
KINGMAN        MOCLDY    55  26  32 SE6       29.99S
6HR MIN TEMP:  54; 6HR MAX TEMP:  68;

$$

AZZ004>008-015-016-018-271300-
NORTH CENTRAL ARIZONA

CITY           SKY/WX    TMP DP  RH WIND       PRES   REMARKS
GRAND CANYON   MOCLDY    40  35  83 CALM      30.17S
6HR MIN TEMP:  39; 6HR MAX TEMP:  45;

WILLIAMS       CLOUDY    45  34  65 S10       30.24S
PRESCOTT       PTCLDY    49  30  48 CALM      30.10R
6HR MIN TEMP:  48; 6HR MAX TEMP:  59;

FLAGSTAFF      MOCLDY    39  33  79 CALM      30.19S
6HR MIN TEMP:  39; 6HR MAX TEMP:  48;

PAYSON         PTCLDY    54  32  43 CALM      30.12R
PAGE           PTCLDY    59  45  59 CALM      30.06R
6HR MIN TEMP:  58; 6HR MAX TEMP:  67;

$$

AZZ009>014-017-271300-
NORTHEAST ARIZONA

CITY           SKY/WX    TMP DP  RH WIND       PRES   REMARKS
WINSLOW        MOCLDY    46  34  62 SE8       30.10S
6HR MIN TEMP:  46; 6HR MAX TEMP:  58;

SAINT JOHNS    MOCLDY    49  28  44 S5        30.14S
6HR MIN TEMP:  48; 6HR MAX TEMP:  59;

WINDOW ROCK    MOCLDY    45  35  68 CALM      30.19R
6HR MIN TEMP:  44; 6HR MAX TEMP:  58;

SHOW LOW       MOCLDY    45  28  53 CALM      30.19S
$$

AZZ023-271300-
GREATER PHOENIX AREA

CITY           SKY/WX    TMP DP  RH WIND       PRES   REMARKS
PHOENIX        MOCLDY    75  41  29 CALM      29.87S
6HR MIN TEMP:  75; 6HR MAX TEMP:  83;

BUCKEYE        CLOUDY    68  36  30 CALM      29.89R
LUKE AFB       MOCLDY    70  44  38 CALM      29.88R
6HR MIN TEMP:  69; 6HR MAX TEMP:  81;

DEER VALLEY    PTCLDY    67  39  35 CALM      29.89S
6HR MIN TEMP:  66; 6HR MAX TEMP:  80;

SCOTTSDALE     CLEAR     69  42  37 CALM      29.91S
6HR MIN TEMP:  69; 6HR MAX TEMP:  80;

MESA-GATEWAY   PTCLDY    84  41  21 E6        29.92S
$$

AZZ027-028-271300-
SOUTHWEST MARICOPA COUNTY AND PINAL COUNTY

CITY           SKY/WX    TMP DP  RH WIND       PRES   REMARKS
CASA GRANDE    CLOUDY    66  36  32 NE3       29.90S
6HR MIN TEMP:  66; 6HR MAX TEMP:  77;

GILA BEND      FAIR      67  38  34 CALM      29.87R
6HR MIN TEMP:  67; 6HR MAX TEMP:  78;

$$

AZZ503-504-507>509-271300-
SOUTHEAST ARIZONA

CITY           SKY/WX    TMP DP  RH WIND       PRES   REMARKS
TUCSON         MOCLDY    64  33  31 SE6       29.99S
6HR MIN TEMP:  64; 6HR MAX TEMP:  77;

DAVIS-MONTHAN  CLOUDY    62  30  29 SE2       29.97S
6HR MIN TEMP:  62; 6HR MAX TEMP:  75;

NOGALES        PTCLDY    51  28  41 CALM      30.04S
6HR MIN TEMP:  51; 6HR MAX TEMP:  68;

SIERRA VISTA   PTCLDY    57  23  26 SW9       30.09S
6HR MIN TEMP:  56; 6HR MAX TEMP:  72;

DOUGLAS        PTCLDY    48  21  34 CALM      30.07R
6HR MIN TEMP:  48; 6HR MAX TEMP:  64;

SAFFORD        CLOUDY    62  30  29 SE5       29.99R
6HR MIN TEMP:  60; 6HR MAX TEMP:  72;

$$

AZZ020-021-025-026-031-271300-
SOUTHWEST ARIZONA

CITY           SKY/WX    TMP DP  RH WIND       PRES   REMARKS
YUMA           MOCLDY    71  38  29 N5        29.83S
6HR MIN TEMP:  70; 6HR MAX TEMP:  79;

$$

CAZ031-033-041-043-047-048-061-271300-
SOUTHERN CALIFORNIA

CITY           SKY/WX    TMP DP  RH WIND       PRES   REMARKS
DOWNTOWN L.A.  CLOUDY    59  54  83 CALM      29.97F
6HR MIN TEMP:  59; 6HR MAX TEMP:  60;

L.A. AIRPORT   CLOUDY    58  54  86 N3        29.98F
6HR MIN TEMP:  58; 6HR MAX TEMP:  59;

SAN DIEGO      CLOUDY    61  54  77 NW6       29.99S
6HR MIN TEMP:  61; 6HR MAX TEMP:  63;

BURBANK        CLOUDY    58  52  80 CALM      29.96F
6HR MIN TEMP:  57; 6HR MAX TEMP:  58;

ONTARIO        CLOUDY    59  53  80 NW6       29.97F HAZE
6HR MIN TEMP:  58; 6HR MAX TEMP:  60;

RIVERSIDE      CLOUDY    59  54  83 W6        29.98S
6HR MIN TEMP:  59; 6HR MAX TEMP:  60;

PALM SPRINGS   PTCLDY    67  53  61 CALM      29.87R
6HR MIN TEMP:  67; 6HR MAX TEMP:  76;

EL CENTRO NAS  CLEAR     67  53  61 SE5       29.83R
6HR MIN TEMP:  67; 6HR MAX TEMP:  78;

IMPERIAL       CLEAR     70  55  59 SE6       29.81S
6HR MIN TEMP:  70; 6HR MAX TEMP:  79;

BLYTHE         CLOUDY    70  48  45 CALM      29.83S
6HR MIN TEMP:  68; 6HR MAX TEMP:  81;

NEEDLES        PTCLDY    75  35  23 CALM      29.85S
6HR MIN TEMP:  74; 6HR MAX TEMP:  87;

$$

NVZ020-UTZ003-271300-
SOUTHERN NEVADA-UTAH

CITY           SKY/WX    TMP DP  RH WIND       PRES   REMARKS
LAS VEGAS      MOCLDY    72  35  25 SW8       29.87R
6HR MIN TEMP:  71; 6HR MAX TEMP:  82;

SALT LAKE CITY MOCLDY    51  46  83 SE8       30.04S
6HR MIN TEMP:  51; 6HR MAX TEMP:  57; 6HR PCP: TRACE;

$$

NMZ009-TXZ055-271300-
NEW MEXICO-WEST TEXAS

CITY           SKY/WX    TMP DP  RH WIND       PRES   REMARKS
ALBUQUERQUE    MOCLDY    58  45  62 NW6       30.15R
6HR MIN TEMP:  58; 6HR MAX TEMP:  67;

EL PASO        PTCLDY    59  30  33 E5        30.03S
6HR MIN TEMP:  59; 6HR MAX TEMP:  73;

$$


........................KEY........................
SKY/WX - SKY CONDITION/WEATHER
TMP    - TEMPERATURE IN FAHRENHEIT
DP     - DEW POINT IN FAHRENHEIT
RH     - RELATIVE HUMIDITY IN PERCENT
WIND   - DIRECTION AND SPEED IN MILES PER HOUR (MPH)
VRB    - VARIABLE WIND DIRECTION
PRES   - MEAN SEA LEVEL PRESSURE IN INCHES OF MERCURY
         F - FALLING PRESSURE   R - RISING PRESSURE
         S - STEADY PRESSURE
VSB    - VISIBILITY IN MILES
HX     - HEAT INDEX IN FAHRENHEIT
WCI    - WIND CHILL INDEX IN FAHRENHEIT
TC     - TEMPERATURE IN CELSIUS WHICH IS ALSO KNOWN AS
         TEMPERATURE IN CENTIGRADE
AFB    - AIR FORCE BASE
         LUKE AFB IS LUKE AIR FORCE BASE
         DAVIS-MONTHAN IS DAVIS-MONTHAN AIR FORCE BASE
NAS    - NAVAL AIR STATION
         EL CENTRO NAS IS EL CENTRO NAVAL AIR STATION
N/A    - NOT AVAILABLE




USA.gov is the U.S. government's official web portal to all federal, state and local government web resources and services.